Location: Alumbaugh
(37.5976°N, 83.9299°W)
Time: 04:27:34
(UTC+00:00)

AO-7 - Visible Passes

Search period start: 21 March 2023 00:00
Search period end: 31 March 2023 00:00
Orbit: 1440 x 1458 km, 101.9° (Epoch: 20 March)

Date Brightness Start Highest point End Pass type
(mag) Time Alt. Az. Time Alt. Az. Time Alt. Az.
21 Mar ? 10:03:41 10° NNE 10:11:54 59° ESE 10:20:02 10° S visible
22 Mar ? 09:05:09 10° NE 09:11:29 23° E 09:17:44 10° SE visible
22 Mar ? 10:56:28 10° NNE 11:04:45 70° WNW 11:12:58 10° SSW visible
23 Mar ? 09:56:41 10° NNE 10:04:49 53° ESE 10:12:50 10° S visible
24 Mar ? 08:58:27 10° NE 09:04:19 21° E 09:10:07 10° SE visible
24 Mar ? 10:49:22 10° NNE 10:57:43 77° WNW 11:05:59 10° SSW visible
25 Mar ? 09:49:44 10° NNE 09:57:43 47° ESE 10:05:37 10° S visible
26 Mar ? 08:51:50 10° NE 08:57:10 18° E 09:02:24 10° SE visible
26 Mar ? 10:42:18 10° NNE 10:50:41 84° WNW 10:58:59 10° SSW visible
27 Mar ? 09:42:47 10° NNE 09:50:37 43° E 09:58:20 10° S visible
28 Mar ? 08:45:20 10° ENE 08:49:58 16° E 08:54:35 10° SE visible
28 Mar ? 10:35:14 10° NNE 10:43:38 89° ESE 10:51:56 10° SSW visible
29 Mar ? 09:35:52 10° NNE 09:43:30 38° E 09:51:01 10° SSE visible
30 Mar ? 08:39:01 10° ENE 08:42:47 14° E 08:46:32 10° ESE visible
30 Mar ? 10:28:11 10° NNE 10:36:34 81° ESE 10:44:52 10° SSW visible
